[[{"header":{"parameterUnit":"m.s-1","parameterCategory":1,"la1":30.2991,"la2":30.254,"lo1":-89.0895,"lo2":-89.0444,"dy":0.0017,"dx":0.0017,"nx":28,"ny":28,"refTime":"2025-02-25T03:00:00:Z","depth":0,"parameterNumber":2,"parameterNumberName":"U-component_of_WINDS"},"data":[0,0,0,0,0,0,0,0,0,0,0,0,0,0,0,0,0,0,0,0,0,0,0,0,0,0,0,0,0,0,0,0,0,0,0,0,0,0,0,0,0,0,0,0,0,0,0,0,0,0,0,0,0,0,0,0,0,0,1.5998,1.5999,0,1.6127,1.6128,1.613,1.6189,1.6188,1.6188,1.6188,1.6325,1.6328,1.6332,0,0,0,0,0,0,0,0,0,0,0,0,0,1.5808,1.5811,1.5998,1.5999,1.6001,1.6127,1.6128,1.613,1.6189,1.6188,1.6188,1.6188,1.6323,1.6328,1.6332,0,0,0,0,0,0,0,0,0,0,0,0,0,1.5909,1.5812,1.5997,1.6045,1.6051,1.6126,1.6128,1.6131,1.6189,1.6188,1.6188,1.6188,1.6322,1.6327,1.6333,1.6372,0,0,1.635,1.6353,0,0,0,0,0,0,0,0,1.5903,1.5916,1.6036,1.6042,1.6048,1.6141,1.6112,1.6212,1.6189,1.6136,1.6188,1.6188,1.6264,1.6275,1.6299,1.6378,1.6384,1.6351,1.6354,1.6357,1.6358,0,0,0,0,0,0,0,1.5896,1.5911,1.6049,1.6038,1.6045,1.6062,1.6076,1.6131,1.62,1.6141,1.6146,1.616,1.6267,1.6294,1.6303,1.6386,1.6351,1.6356,1.6359,1.6361,1.6507,1.6508,0,0,0,0,0,0,1.5881,1.5904,1.6045,1.6053,1.5974,1.6066,1.6081,1.6112,1.62,1.6213,1.616,1.6162,1.6284,1.6296,1.6308,1.6361,1.6357,1.6362,1.6365,1.6507,1.6507,1.6508,0,0,0,0,0,0,1.5876,1.5893,1.604,1.598,1.6,1.6069,1.6103,1.6114,1.6141,1.6214,1.6227,1.6174,1.6285,1.63,1.6356,1.6366,1.6364,1.637,1.6506,1.6507,1.6508,1.6466,0,0,0,0,0,0,1.5871,1.5891,1.5904,1.598,1.6003,1.6083,1.6103,1.6117,1.615,1.6154,1.623,1.6243,1.6286,1.6347,1.6362,1.6374,1.6374,1.6506,1.6506,1.6507,1.6467,1.6465,1.6464,0,0,0,0,0,1.5864,1.5888,1.5905,1.5921,1.6021,1.6084,1.6097,1.6145,1.615,1.6166,1.6214,1.624,1.6363,1.6353,1.6369,1.6384,1.6505,1.6506,1.6507,1.6467,1.6465,1.6464,0,0,0,0,0,0,1.5813,1.5898,1.5918,1.5967,1.6018,1.6093,1.6114,1.6141,1.6192,1.6194,1.6252,1.6269,1.632,1.6358,1.6344,1.6428,1.6437,1.6441,1.6401,1.64,1.6398,1.6388,1.6379,0,0,0,0,0,1.5807,1.5849,1.5922,1.5959,1.5983,1.6044,1.6073,1.6106,1.6161,1.6183,1.6234,1.6288,1.634,1.6372,1.6423,1.6473,1.6492,1.6491,1.649,1.6488,1.6492,1.6523,1.6525,1.6511,1.6511,1.6511,0,0,1.5796,1.5848,1.5871,1.595,1.5993,1.6037,1.6062,1.6107,1.6141,1.619,1.6246,1.6286,1.635,1.6404,1.643,1.6437,1.65,1.649,1.6488,1.6492,1.6525,1.6526,1.6527,1.6512,1.6512,1.6512,0,0,1.5798,1.5841,1.5877,1.592,1.5984,1.6025,1.6034,1.6107,1.6135,1.6191,1.623,1.6273,1.6359,1.6404,1.6438,1.646,1.6488,1.6476,1.6468,1.6498,1.6499,1.65,1.651,1.6512,1.6479,1.6478,1.6478,0,1.5776,1.5842,1.5892,1.5935,1.597,1.6017,1.6055,1.6095,1.6173,1.6197,1.6203,1.6314,1.636,1.6426,1.6432,1.6457,1.6471,1.6467,1.6495,1.6497,1.6498,1.6508,1.6511,1.6477,1.6477,1.6477,1.6477,0,1.5813,1.5859,1.5881,1.5954,1.5992,1.6032,1.609,1.6122,1.6153,1.6194,1.6253,1.6311,1.6375,1.6393,1.6423,1.6465,1.6467,1.6483,1.6494,1.6497,1.6507,1.6511,1.6474,1.6475,1.6475,1.6476,0,0,1.5785,1.5887,1.5894,1.5929,1.6005,1.6043,1.6087,1.6149,1.6176,1.623,1.627,1.6343,1.6359,1.6398,1.6434,1.646,1.6476,1.6474,1.6477,1.6473,1.6528,1.6515,1.6518,1.6495,1.6496,1.6497,1.6522,0,1.5798,1.5877,1.5924,1.5985,1.6029,1.6076,1.6115,1.6167,1.6207,1.6252,1.6298,1.6349,1.6366,1.639,1.6419,1.6468,1.6488,1.6467,1.6535,1.6536,1.6516,1.6523,1.6509,1.653,1.6527,1.6527,1.6528,0,1.5823,1.5875,1.5939,1.6012,1.6033,1.6066,1.6129,1.6171,1.6232,1.626,1.6304,1.6341,1.6392,1.6399,1.6471,1.6456,1.6487,1.6516,1.6518,1.6526,1.6532,1.6532,1.6538,1.6541,1.6534,1.6534,1.6533,0,1.5796,1.5883,1.5933,1.5962,1.6048,1.6071,1.6109,1.617,1.6205,1.626,1.6284,1.6345,1.6378,1.6426,1.6479,1.6479,1.6547,1.6558,1.6573,1.6572,1.6584,1.6583,1.6596,1.6604,1.6604,1.6604,1.6604,0,1.5806,1.5844,1.5923,1.5953,1.5998,1.6054,1.6098,1.614,1.6194,1.6236,1.6281,1.6319,1.6387,1.6435,1.6477,1.6532,1.6546,1.6572,1.6583,1.6568,1.6565,1.6589,1.6588,1.6605,1.6605,1.6605,1.6604,0,1.5783,1.5837,1.5895,1.5973,1.5994,1.6024,1.6091,1.6125,1.6169,1.6221,1.6237,1.6306,1.6365,1.6422,1.6502,1.653,1.6585,1.6599,1.6563,1.6569,1.6581,1.658,1.661,1.6618,1.662,1.662,1.662,0,1.5785,1.5815,1.5897,1.5927,1.5964,1.6012,1.6049,1.6106,1.6143,1.6217,1.6241,1.6303,1.6356,1.6448,1.6507,1.6568,1.6585,1.6592,1.6594,1.6579,1.6586,1.6583,1.6588,1.659,1.6589,1.6589,1.6589,0,1.5783,1.5809,1.5859,1.5919,1.5961,1.6011,1.6063,1.6086,1.6155,1.6194,1.6254,1.6295,1.6376,1.6438,1.6507,1.6548,1.6581,1.6588,1.6595,1.658,1.6558,1.6571,1.6559,1.6586,1.6587,1.6587,1.6587,1.6587,1.5774,1.5804,1.5866,1.5921,1.5966,1.6014,1.605,1.6099,1.6149,1.6219,1.6251,1.6312,1.6376,1.6472,1.6513,1.6563,1.6571,1.6581,1.6584,1.6585,1.6582,1.655,1.6576,1.6576,1.6576,1.6577,1.6577,0,1.5775,1.5818,1.5868,1.5939,1.5983,1.6009,1.6069,1.6105,1.6157,1.6214,1.6265,1.6336,1.6397,1.6461,1.6526,1.6554,1.6571,1.6569,1.6568,1.6577,1.6571,1.6559,1.6555,1.6555,1.6555,1.6555,1.6555,1.6555,1.578,1.5833,1.5867,1.5943,1.5987,1.6046,1.6078,1.6124,1.617,1.6246,1.6297,1.6338,1.6399,1.6469,1.6527,1.6545,1.6567,1.6561,1.6583,1.6576,1.6577,1.6579,1.6567,1.6566,1.6566,1.6586,1.6586,1.6586]},{"header":{"parameterUnit":"m.s-1","parameterCategory":1,"la1":30.2991,"la2":30.254,"lo1":-89.0895,"lo2":-89.0444,"dy":0.0017,"dx":0.0017,"nx":28,"ny":28,"refTime":"2025-02-25T03:00:00:Z","depth":0,"parameterNumber":3,"parameterNumberName":"V-component_of_WINDS"},"data":[0,0,0,0,0,0,0,0,0,0,0,0,0,0,0,0,0,0,0,0,0,0,0,0,0,0,0,0,0,0,0,0,0,0,0,0,0,0,0,0,0,0,0,0,0,0,0,0,0,0,0,0,0,0,0,0,0,0,0.2839,0.2839,0,0.2834,0.2834,0.2834,0.2726,0.2723,0.272,0.2718,0.2714,0.2717,0.2719,0,0,0,0,0,0,0,0,0,0,0,0,0,0.2753,0.2756,0.2839,0.2839,0.2839,0.2834,0.2834,0.2834,0.2726,0.2723,0.2719,0.2716,0.2713,0.2716,0.2719,0,0,0,0,0,0,0,0,0,0,0,0,0,0.2774,0.2756,0.2839,0.2785,0.278,0.2834,0.2834,0.2834,0.2727,0.2723,0.2719,0.2715,0.2712,0.2716,0.272,0.2827,0,0,0.2731,0.2733,0,0,0,0,0,0,0,0,0.2773,0.2777,0.2793,0.2789,0.2783,0.2776,0.2802,0.2832,0.2728,0.2747,0.2717,0.2713,0.2738,0.274,0.2748,0.2827,0.2827,0.2732,0.2734,0.2736,0.2737,0,0,0,0,0,0,0,0.2772,0.2777,0.2837,0.2793,0.2787,0.276,0.2758,0.2808,0.2766,0.2745,0.2737,0.2738,0.2735,0.2745,0.2747,0.2826,0.2732,0.2735,0.2737,0.2739,0.2986,0.299,0,0,0,0,0,0,0.2778,0.2776,0.2837,0.2837,0.2767,0.2765,0.2763,0.2783,0.2765,0.2759,0.2742,0.2733,0.274,0.2743,0.2747,0.2866,0.2736,0.2739,0.2741,0.2981,0.2987,0.2991,0,0,0,0,0,0,0.2776,0.2784,0.2838,0.2804,0.2809,0.2771,0.2794,0.2785,0.2794,0.2763,0.2755,0.2759,0.2737,0.2741,0.2806,0.2864,0.2741,0.2744,0.2976,0.2983,0.2989,0.3109,0,0,0,0,0,0,0.2774,0.2784,0.2826,0.2806,0.2811,0.2898,0.2798,0.2788,0.2801,0.279,0.2777,0.2771,0.2734,0.2801,0.281,0.2867,0.2747,0.2971,0.2979,0.2987,0.3099,0.3118,0.3135,0,0,0,0,0,0.2772,0.2862,0.2828,0.2836,0.2862,0.2902,0.2905,0.286,0.2806,0.2846,0.2825,0.2772,0.2857,0.2809,0.2818,0.2877,0.2967,0.2977,0.2986,0.3091,0.3115,0.3134,0,0,0,0,0,0,0.2891,0.2858,0.2821,0.2907,0.2908,0.2884,0.2933,0.2887,0.2904,0.2893,0.2836,0.2835,0.2907,0.2899,0.2845,0.2976,0.2902,0.2914,0.2979,0.3001,0.3018,0.3018,0.275,0,0,0,0,0,0.2927,0.2962,0.2932,0.3011,0.3012,0.2973,0.2989,0.2953,0.2952,0.2952,0.2936,0.2937,0.2963,0.2982,0.3005,0.3098,0.3091,0.3143,0.3161,0.3175,0.3186,0.3229,0.325,0.3023,0.3023,0.3023,0,0,0.3003,0.2989,0.3015,0.3034,0.303,0.3066,0.2974,0.3018,0.3043,0.2959,0.3017,0.3006,0.3003,0.308,0.3114,0.3076,0.3247,0.3188,0.32,0.3202,0.3241,0.3262,0.3281,0.3029,0.3028,0.3027,0,0,0.3158,0.3153,0.3215,0.3212,0.3206,0.3178,0.3193,0.3175,0.3163,0.322,0.3156,0.3186,0.3234,0.3232,0.3238,0.3387,0.3336,0.3396,0.3488,0.3531,0.3548,0.3564,0.3613,0.3631,0.3407,0.3407,0.3407,0,0.3253,0.3304,0.3253,0.3299,0.3307,0.323,0.3291,0.3291,0.3295,0.3301,0.3259,0.3313,0.3306,0.338,0.3415,0.3424,0.3437,0.3397,0.355,0.3565,0.3579,0.3624,0.3643,0.3414,0.3413,0.3413,0.3412,0,0.3418,0.3455,0.3506,0.3507,0.3522,0.3576,0.3531,0.3551,0.3514,0.349,0.3547,0.3535,0.3551,0.3567,0.3533,0.3634,0.361,0.356,0.3483,0.3608,0.365,0.3667,0.3424,0.3421,0.3419,0.3418,0,0,0.3651,0.3619,0.3638,0.3635,0.3621,0.3648,0.3697,0.3711,0.3727,0.3732,0.3768,0.3808,0.3759,0.3766,0.373,0.3768,0.388,0.3712,0.3711,0.374,0.3986,0.4022,0.4043,0.3847,0.3851,0.3853,0.3985,0,0.3797,0.3877,0.383,0.3916,0.3946,0.3871,0.3913,0.3908,0.3886,0.3908,0.3884,0.3911,0.3847,0.3849,0.3884,0.386,0.3928,0.385,0.3879,0.388,0.3879,0.4066,0.4105,0.423,0.4001,0.4004,0.4006,0,0.3979,0.3986,0.4075,0.4049,0.406,0.4099,0.4104,0.4128,0.4119,0.41,0.4104,0.4057,0.4101,0.4026,0.4083,0.4031,0.4039,0.4029,0.4033,0.4032,0.3949,0.4066,0.4269,0.4287,0.4032,0.403,0.4028,0,0.4134,0.4167,0.4222,0.4223,0.4196,0.4223,0.4213,0.42,0.421,0.4216,0.422,0.4232,0.4238,0.4247,0.4203,0.4154,0.4264,0.4188,0.4247,0.4249,0.4273,0.4272,0.4477,0.4284,0.4284,0.4284,0.4283,0,0.4301,0.4357,0.4291,0.4325,0.4384,0.4328,0.4388,0.437,0.4358,0.4386,0.4324,0.4351,0.4293,0.4314,0.428,0.4329,0.4334,0.4318,0.4307,0.4322,0.4323,0.4325,0.4314,0.4289,0.4287,0.4287,0.4286,0,0.4484,0.4442,0.4497,0.4465,0.4458,0.4502,0.4474,0.4503,0.4475,0.4511,0.4516,0.4473,0.4493,0.4451,0.4467,0.4444,0.4512,0.4491,0.4515,0.4507,0.4567,0.4561,0.4779,0.4802,0.4598,0.46,0.4602,0,0.4592,0.4632,0.4603,0.4616,0.4608,0.4631,0.4639,0.4585,0.4596,0.4586,0.4615,0.463,0.4639,0.4675,0.4645,0.4655,0.4631,0.4706,0.4632,0.4643,0.4627,0.4623,0.4625,0.4721,0.4723,0.4725,0.4727,0,0.4786,0.4762,0.4775,0.478,0.4791,0.4793,0.4791,0.4805,0.4747,0.4762,0.4781,0.4788,0.4801,0.4816,0.4818,0.4806,0.4756,0.475,0.4764,0.4777,0.4788,0.4779,0.4553,0.4746,0.4744,0.4742,0.4741,0.4741,0.4932,0.4962,0.4944,0.496,0.4951,0.4949,0.4973,0.4946,0.4961,0.4966,0.4933,0.4958,0.4944,0.4941,0.4934,0.4952,0.4918,0.4939,0.4944,0.4949,0.4957,0.4787,0.4953,0.4953,0.4952,0.4952,0.4951,0,0.5119,0.5102,0.5118,0.5114,0.5125,0.5075,0.5068,0.5081,0.5103,0.5094,0.5102,0.5121,0.5133,0.5102,0.5109,0.5129,0.5106,0.5132,0.5129,0.5126,0.4989,0.4975,0.5151,0.5151,0.5151,0.5151,0.5151,0.5151,0.5218,0.5264,0.5237,0.5277,0.5261,0.5283,0.5283,0.5279,0.527,0.5293,0.5302,0.5281,0.5262,0.5266,0.5274,0.5264,0.5268,0.5302,0.5284,0.5156,0.5137,0.5118,0.5104,0.5304,0.5304,0.5419,0.542,0.5421]}]]